Wellsville, NY

11:18 AM EST on December 13, 2019 (GMT -0500)
Wellsville Municipal-Tarantine

Weather History for KELZ - August, 2019

Change the Weather History Date:

Monday, August 26, 2019

  Actual Average (WUND) Record (WUND)
Temperature  
Mean Temperature 58 °F -  
Max Temperature 70 °F - - (-1)
Min Temperature 48 °F - - (-1)
Degree Days  
Heating Degree Days 6    
Growing Degree Days 8 (Base 50)    
Moisture  
Dew Point 51 °F    
Average Humidity 84    
Maximum Humidity 100    
Minimum Humidity 52    
Precipitation  
Precipitation 0.00 in - - ()
Sea Level Pressure  
Sea Level Pressure 30.22 in    
Wind  
Wind Speed 3 mph ()    
Max Wind Speed 13 mph    
Max Gust Speed 20 mph    
Visibility 6.9 miles    
Events Fog    
Averages and records for this station are not official NWS values.
T = Trace of Precipitation, MM = Missing Value Source: Averaged Metar Reports

Daily Weather History Graph

Daily Weather History Graph

Search for Another Location

Airport or City:

Astronomy

Aug. 26, 2019 Rise Set
Actual Time 6:30 AM EDT 7:55 PM EDT
Civil Twilight 6:01 AM EDT 8:25 PM EDT
Nautical Twilight 5:26 AM EDT 9:00 PM EDT
Astronomical Twilight 4:49 AM EDT 9:37 PM EDT
Moon 1:50 AM EDT (8/26) 5:21 PM EDT (8/26)
Length of Visible Light 14h 23m
Length of Day
13h 25m
Waning Crescent, 19% of the Moon is Illuminated
Aug 26
Waning Crescent
Aug 30
New
Sep 5
First Quarter
Sep 14
Full
Sep 21
Last Quarter

Hourly Weather History & Observations

Time (EDT) Temp. Dew Point Humidity Pressure Visibility Wind Dir Wind Speed Gust Speed Precip Events Conditions
12:56 AM 54.0 °F 52.0 °F 93% 30.27 in 10.0 mi ESE 3.5 mph - N/A   Clear
1:56 AM 53.1 °F 52.0 °F 96% 30.26 in 10.0 mi Calm Calm - N/A   Clear
2:25 AM 52.0 °F 51.1 °F 97% 30.27 in 2.5 mi Calm Calm - N/A   Clear
2:45 AM 51.1 °F 51.1 °F 100% 30.27 in 8.0 mi Calm Calm - N/A   Clear
2:56 AM 52.0 °F 52.0 °F 100% 30.27 in 10.0 mi Calm Calm - N/A   Clear
3:22 AM 51.1 °F 51.1 °F 100% 30.26 in 1.8 mi Calm Calm - N/A   Clear
3:49 AM 51.1 °F 51.1 °F 100% 30.26 in 1.2 mi Calm Calm - N/A   Clear
3:54 AM 50.0 °F 50.0 °F 100% 30.27 in 0.5 mi Calm Calm - N/A Fog Fog
3:56 AM 50.0 °F 50.0 °F 100% 30.27 in 0.2 mi Calm Calm - N/A Fog Fog
4:16 AM 50.0 °F 48.9 °F 96% 30.27 in 0.5 mi Calm Calm - N/A Fog Fog
4:27 AM 50.0 °F 50.0 °F 100% 30.27 in 0.2 mi Calm Calm - N/A Fog Fog
4:29 AM 50.0 °F 50.0 °F 100% 30.27 in 0.5 mi Calm Calm - N/A Fog Fog
4:41 AM 51.1 °F 51.1 °F 100% 30.27 in 10.0 mi Calm Calm - N/A   Clear
4:56 AM 51.1 °F 51.1 °F 100% 30.26 in 10.0 mi Calm Calm - N/A   Clear
5:10 AM 48.9 °F 48.9 °F 100% 30.26 in 2.0 mi Calm Calm - N/A   Partly Cloudy
5:12 AM 48.9 °F 48.9 °F 100% 30.26 in 1.0 mi ESE 3.5 mph - N/A   Mist
5:20 AM 48.0 °F 48.0 °F 100% 30.26 in 0.5 mi ESE 3.5 mph - N/A Fog Fog
5:33 AM 48.9 °F 48.9 °F 100% 30.25 in 2.0 mi ESE 4.6 mph - N/A   Partly Cloudy
5:56 AM 48.9 °F 48.9 °F 100% 30.26 in 6.0 mi Calm Calm - N/A   Clear
6:56 AM 52.0 °F 51.1 °F 97% 30.26 in 10.0 mi Calm Calm - N/A   Clear
7:56 AM 54.0 °F 52.0 °F 93% 30.27 in 10.0 mi Calm Calm - N/A   Clear
8:56 AM 55.9 °F 54.0 °F 93% 30.27 in 10.0 mi SE 3.5 mph - N/A   Clear
9:56 AM 61.0 °F 55.0 °F 81% 30.27 in 10.0 mi Variable 5.8 mph - N/A   Clear
10:56 AM 63.0 °F 52.0 °F 67% 30.25 in 10.0 mi Variable 6.9 mph - N/A   Scattered Clouds
11:56 AM 64.9 °F 51.1 °F 61% 30.22 in 10.0 mi SSE 10.4 mph 18.4 mph N/A   Partly Cloudy
12:56 PM 66.9 °F 52.0 °F 59% 30.20 in 10.0 mi South 9.2 mph - N/A   Partly Cloudy
1:56 PM 68.0 °F 51.1 °F 55% 30.18 in 10.0 mi SE 9.2 mph - N/A   Clear
2:56 PM 69.1 °F 51.1 °F 53% 30.15 in 10.0 mi ESE 11.5 mph 19.6 mph N/A   Clear
3:56 PM 68.0 °F 52.0 °F 56% 30.13 in 10.0 mi SSE 8.1 mph 17.3 mph N/A   Clear
4:56 PM 68.0 °F 50.0 °F 52% 30.13 in 10.0 mi SSE 12.7 mph 19.6 mph N/A   Clear
5:56 PM 66.9 °F 48.9 °F 52% 30.13 in 10.0 mi SSE 12.7 mph 18.4 mph N/A   Clear
6:56 PM 64.9 °F 48.9 °F 56% 30.12 in 10.0 mi SSE 8.1 mph - N/A   Clear
7:56 PM 62.1 °F 50.0 °F 65% 30.12 in 10.0 mi SE 5.8 mph - N/A   Partly Cloudy
8:56 PM 60.1 °F 50.0 °F 69% 30.13 in 10.0 mi SSE 6.9 mph - N/A   Mostly Cloudy
9:56 PM 59.0 °F 50.0 °F 72% 30.11 in 10.0 mi SSE 8.1 mph - N/A   Partly Cloudy
10:56 PM 59.0 °F 50.0 °F 72% 30.10 in 10.0 mi SSE 6.9 mph - N/A   Clear
11:56 PM 60.1 °F 51.1 °F 72% 30.08 in 10.0 mi SSE 10.4 mph - N/A   Clear